Starlink 5138

operational
NORAD ID: 54078 Int'l Des: 2022-136 Owner: SPXS Country: US Constellation: starlink
LEOCIRCULAR

About Starlink 5138

Description loading...

Live Position

Loading 3D Globe...

Upcoming Passes

Altitude History

Altitude vs Time

uPlot chart will show altitude changes over time

Two-Line Element Set

1 54078U 22136AD 25260.25009259 .00121963 00000-0 55384-2 0 9994
2 54078 53.2185 22.3899 0001296 58.2530 21.6521 15.19849861 5659
Epoch: Sep 17, 2025 • Age: 22 hours

Current Status

Altitude 514.6 km
Velocity 7.61 km/s
Sub-Earth Point -29.16°S, 57.28°W
Launch Date Oct 20, 2022
Age 2.9 years
Type internet

Technical Details

Classification Payload
Mass 305.00 kg
Dry Mass 290.00 kg
Total Mass 305.00 kg
Length 0.20 m
Diameter 2.80 m
Span 9.00 m
Shape Box + pan
Manufacturer SPXS
Bus Type Starlink
Phase Status In Orbit
Owner/State SPXS/US

Large Constellations

Loading constellations...